DELTA 1 DEB, 6214

Orbit data source: Space-Track

DELTA 1 DEB, 6214 is space debris in SSO originally from a launch on Mon, 28 Feb 1966 UTC launched from the Air Force Eastern Test Range (AFETR). Debris objects in space refer to the collection of defunct objects orbiting the Earth. Examples of debris include non-operational satellites, rocket bodies, and fragments generated from explosions, collisions, or faulty payload assembly.

Loading next visibility...
Identifier
6214, 1966-016E
Orbit
SSO
Country
Flag of USUS
Related business
Manufacturer
Unknown
Mission
Spacecraft
Bus & Motor
Unknown
Mass
Unknown
Launch date (UTC)
1966-02-28 (60 years ago)
Launch vehicle
Unknown
Launch site
Air Force Eastern Test Range (AFETR)
Object type
Payload
Rocket body
Debris
Shape & HBR
Unknown shape, 0.1 m
Radar Cross Section
Medium (>0.1 m² and <1 m²)

Expand to show TLE details & history
Last TLE update: 12 hours ago

TLE from 12 hours ago
0 DELTA 1 DEB
1  6214U 66016E   26175.96582815  .00000099  00000-0  77956-3 0  9992
2  6214 101.7611 175.6255 0119805 146.5936 242.2599 12.62805773775903
Epoch: 2026-06-24T23:10Z
TLE epoch observation values (Epoch: 2026-06-24T23:10:47.552Z)
Latitude
27.05596°
Longitude
-91.26245°
Altitude
1,458.722 km
Speed
7.115 km/s
True Right ascension
11h 18m 12s
True Declination
26° 55' 46"
Sunlit
Object was in daylight at epoch
Visualization orbit readout
Latitude
Unknown
Longitude
Unknown
Altitude
Unknown
Speed
Unknown
Apparent Right ascension
Unknown
Apparent Declination
Unknown
Sunlit
N/A
Visualization observer readout
Local Sidereal Time
22:49:14
Azimuth
Unknown
Elevation
Unknown
Doppler factor
Unknown
Orbital elements
Apogee altitude
1,502.208 km
Perigee altitude
1,315.622 km
Semi-major axis
7,787.052 km
Eccentricity
0.01198
Inclination
101.7611°
RAAN
175.6255°
Arg. of periapsis
146.5936°
True anomaly
241.05332°
Mean anomaly
242.2599°
Eccentric anomaly
241.65576°
Mean motion
3.15852 °/min
Orbital period
113.98 mins
BSTAR
0.00077956
Loading maneuver chart data...
Computing Atmospheric mass density...
Loading historical data...
Loading historical data...
Loading historical data...
Loading historical data...
Loading historical data...
Loading historical data...
Loading historical data...
Other satellites on launch #16 in the year 1966 (1966-02-28 UTC)

Documentation

Showing up to 5 results
|